Location: Musselshell
(46.5176°N, 108.0911°W)
Time: 14:32:12
(UTC+00:00)

ISS - Visible Passes

Search period start: 24 January 2022 00:00
Search period end: 03 February 2022 00:00
Orbit: 413 x 422 km, 51.6° (Epoch: 24 January)

Date Brightness Start Highest point End Pass type
(mag) Time Alt. Az. Time Alt. Az. Time Alt. Az.
24 Jan -3.0 01:47:51 10° W 01:51:03 41° NNW 01:51:34 38° NNE visible
25 Jan -3.3 00:59:40 10° W 01:02:57 52° NNW 01:05:32 15° NE visible
25 Jan -1.3 02:37:06 10° WNW 02:38:27 20° NW 02:38:27 20° NW visible
26 Jan -2.7 01:48:55 10° WNW 01:52:00 33° N 01:52:24 32° NNE visible
27 Jan -2.8 01:00:42 10° WNW 01:03:49 36° N 01:06:20 14° NE visible
27 Jan -1.4 02:37:56 10° WNW 02:39:15 20° NW 02:39:15 20° NW visible
28 Jan -2.8 01:49:50 10° WNW 01:52:55 33° N 01:53:11 33° NNE visible
29 Jan -2.7 01:01:41 10° WNW 01:04:44 32° N 01:07:09 14° ENE visible
29 Jan -1.6 02:38:36 10° WNW 02:40:04 23° NW 02:40:04 23° NW visible
30 Jan -3.3 01:50:32 10° WNW 01:53:46 44° NNE 01:54:04 42° NNE visible
31 Jan -3.0 01:02:26 10° WNW 01:05:35 37° N 01:08:06 14° ENE visible
31 Jan -1.9 02:39:12 10° WNW 02:41:03 30° WNW 02:41:03 30° WNW visible
01 Feb -3.9 01:51:06 10° WNW 01:54:27 77° NNE 01:55:10 51° E visible
02 Feb -3.6 01:03:00 10° WNW 01:06:19 55° NNE 01:09:23 11° E visible
02 Feb -1.8 02:39:57 10° WNW 02:42:20 28° WSW 02:42:20 28° WSW visible
